Torna al catalogo

OPS 4682 DEB

AttivoPO
NORAD 17666·DEBRIS·🇺🇸 United States

Lanciato Apr 3, 1965 da Vandenberg Space Force Base

Loading…

Prossimi Passaggi (prossime 24 ore)

TLE

AggiornatoSource: Space-Track

Epoca: Sep 14, 2026, 06:55 UTC

1 17666U 65027V   26257.28822664  .00001301  00000-0  44407-2 0  9992
2 17666  90.2531  14.0333 0042243 210.5277 177.7778 12.97450917961365

Traccia OPS 4682 DEB in tempo reale con AllMySat

Download on the App Store